Torna al catalogo

STARLINK-11165

AttivoComunicazioniVLEO
NORAD 60063·PAYLOAD·🇺🇸 United States

Lanciato Jun 19, 2024 da Vandenberg Space Force Base

Loading…

Prossimi Passaggi (prossime 24 ore)

TLE

AggiornatoSource: CelesTrak SupGP

Epoca: Sep 14, 2026, 20:37 UTC

1 60063C 24113E   26257.85951389 -.00054254  00000+0 -44671-3 0  2579
2 60063  53.1563 338.5775 0001124  73.3915 292.1670 15.69747033    17

Traccia STARLINK-11165 in tempo reale con AllMySat

Download on the App Store